[[{"header":{"parameterUnit":"m.s-1","parameterCategory":1,"la1":30.2991,"la2":30.254,"lo1":-89.0895,"lo2":-89.0444,"dy":0.0017,"dx":0.0017,"nx":28,"ny":28,"refTime":"2024-02-29T03:00:00:Z","depth":0,"parameterNumber":2,"parameterNumberName":"U-component_of_WINDS"},"data":[0,0,0,0,0,0,0,0,0,0,0,0,0,0,0,0,0,0,0,0,0,0,0,0,0,0,0,0,0,0,0,0,0,0,0,0,0,0,0,0,0,0,0,0,0,0,0,0,0,0,0,0,0,0,0,0,0,0,-5.9644,-5.9645,0,-5.9709,-5.971,-5.971,-5.958,-5.9576,-5.9571,-5.9567,-5.9634,-5.964,-5.9645,0,0,0,0,0,0,0,0,0,0,0,0,0,-5.9407,-5.9412,-5.9644,-5.9645,-5.9646,-5.9709,-5.971,-5.971,-5.9581,-5.9576,-5.957,-5.9565,-5.9632,-5.9639,-5.9646,0,0,0,0,0,0,0,0,0,0,0,0,0,-5.9495,-5.9413,-5.9644,-5.9588,-5.9584,-5.9709,-5.971,-5.9711,-5.9582,-5.9575,-5.9569,-5.9563,-5.963,-5.9638,-5.9647,-5.9828,0,0,-5.9673,-5.9677,0,0,0,0,0,0,0,0,-5.949,-5.9503,-5.9596,-5.9592,-5.9588,-5.963,-5.965,-5.975,-5.9583,-5.9583,-5.9567,-5.956,-5.9638,-5.9645,-5.9672,-5.9831,-5.9834,-5.9674,-5.9679,-5.9683,-5.9685,0,0,0,0,0,0,0,-5.9484,-5.95,-5.9669,-5.9597,-5.9592,-5.956,-5.9565,-5.9669,-5.9645,-5.9582,-5.9573,-5.9582,-5.9634,-5.9664,-5.9672,-5.9835,-5.9674,-5.9681,-5.9687,-5.969,-6.0147,-6.0153,0,0,0,0,0,0,-5.9485,-5.9496,-5.9667,-5.9671,-5.9522,-5.957,-5.9576,-5.9623,-5.9644,-5.9641,-5.9588,-5.9576,-5.9652,-5.9662,-5.9674,-5.9888,-5.9683,-5.9691,-5.9696,-6.014,-6.0148,-6.0156,0,0,0,0,0,0,-5.948,-5.9501,-5.9665,-5.9581,-5.9599,-5.958,-5.9634,-5.9627,-5.9656,-5.9648,-5.9643,-5.9622,-5.9647,-5.9662,-5.9791,-5.9889,-5.9695,-5.9703,-6.0132,-6.0143,-6.0152,-6.0318,0,0,0,0,0,0,-5.9474,-5.95,-5.957,-5.9584,-5.9604,-5.9781,-5.964,-5.9633,-5.9672,-5.9657,-5.9679,-5.9676,-5.9643,-5.9779,-5.98,-5.9897,-5.9709,-6.0123,-6.0137,-6.0149,-6.0304,-6.0333,-6.0358,0,0,0,0,0,-5.9466,-5.9614,-5.9574,-5.9595,-5.969,-5.9787,-5.9799,-5.9758,-5.968,-5.9749,-5.9744,-5.9676,-5.9874,-5.9793,-5.9815,-5.9917,-6.0117,-6.0133,-6.0148,-6.0292,-6.0327,-6.0357,0,0,0,0,0,0,-5.9612,-5.9615,-5.957,-5.9727,-5.9758,-5.9765,-5.9851,-5.9797,-5.9851,-5.9835,-5.9781,-5.9788,-5.9927,-5.9934,-5.9844,-6.0094,-5.9982,-6.0003,-6.0084,-6.0118,-6.0144,-6.014,-5.9717,0,0,0,0,0,-5.9662,-5.9741,-5.9739,-5.9877,-5.9895,-5.9871,-5.9911,-5.9877,-5.9907,-5.9919,-5.9923,-5.9955,-6.0024,-6.0071,-6.0134,-6.0304,-6.0307,-6.0385,-6.0412,-6.0434,-6.0453,-6.0543,-6.0578,-6.0207,-6.0207,-6.0207,0,0,-5.9767,-5.9778,-5.9831,-5.9907,-5.9927,-6.0009,-5.9883,-5.9975,-6.0036,-5.9933,-6.0056,-6.006,-6.0091,-6.0241,-6.0308,-6.0252,-6.0556,-6.0454,-6.0472,-6.0479,-6.0563,-6.0598,-6.0629,-6.0218,-6.0216,-6.0214,0,0,-6.0001,-6.0017,-6.0134,-6.0157,-6.0188,-6.0171,-6.0199,-6.0215,-6.0214,-6.0335,-6.026,-6.0331,-6.0452,-6.0477,-6.0506,-6.0749,-6.0689,-6.0771,-6.0913,-6.1002,-6.1031,-6.1057,-6.1144,-6.1176,-6.079,-6.079,-6.0791,0,-6.0127,-6.0249,-6.0201,-6.03,-6.0335,-6.0245,-6.0364,-6.0388,-6.0439,-6.0466,-6.0402,-6.0551,-6.0566,-6.0721,-6.0781,-6.0807,-6.0838,-6.0769,-6.1031,-6.1056,-6.1079,-6.1162,-6.1195,-6.08,-6.0799,-6.0798,-6.0797,0,-6.0403,-6.0489,-6.058,-6.0631,-6.0677,-6.0785,-6.0754,-6.0805,-6.0767,-6.0756,-6.0881,-6.0896,-6.0961,-6.0994,-6.0958,-6.1145,-6.1109,-6.1039,-6.0926,-6.1125,-6.1202,-6.1233,-6.0814,-6.0811,-6.0808,-6.0805,0,0,-6.0732,-6.0756,-6.079,-6.0812,-6.084,-6.0905,-6.1009,-6.1072,-6.1118,-6.1156,-6.1242,-6.1345,-6.128,-6.1313,-6.1278,-6.1356,-6.1549,-6.1276,-6.1276,-6.1328,-6.1756,-6.181,-6.1848,-6.1508,-6.1514,-6.1519,-6.1754,0,-6.0964,-6.1143,-6.1103,-6.1279,-6.1358,-6.1273,-6.1363,-6.1391,-6.1383,-6.1449,-6.144,-6.1515,-6.1423,-6.1442,-6.1516,-6.151,-6.1634,-6.1492,-6.1588,-6.1592,-6.1584,-6.1888,-6.1945,-6.2166,-6.1784,-6.1789,-6.1792,0,-6.126,-6.1309,-6.1494,-6.1509,-6.154,-6.1622,-6.1677,-6.174,-6.1769,-6.1758,-6.1795,-6.1745,-6.1847,-6.1732,-6.1873,-6.1777,-6.1813,-6.1817,-6.1824,-6.1833,-6.1705,-6.1905,-6.2236,-6.227,-6.1839,-6.1835,-6.1832,0,-6.1483,-6.1595,-6.172,-6.1741,-6.1762,-6.1822,-6.1833,-6.1855,-6.1896,-6.1943,-6.1969,-6.2028,-6.2061,-6.2108,-6.2075,-6.1994,-6.2221,-6.2103,-6.2215,-6.2217,-6.2268,-6.2266,-6.261,-6.229,-6.229,-6.2289,-6.2288,0,-6.1747,-6.1864,-6.182,-6.1897,-6.2025,-6.1977,-6.2105,-6.2106,-6.2126,-6.2202,-6.2132,-6.2204,-6.2155,-6.2224,-6.2198,-6.2319,-6.2334,-6.2328,-6.2321,-6.2336,-6.2337,-6.236,-6.2344,-6.2298,-6.2296,-6.2294,-6.2293,0,-6.2019,-6.1994,-6.2125,-6.2133,-6.2138,-6.2232,-6.2239,-6.231,-6.2297,-6.2394,-6.2414,-6.2394,-6.247,-6.2442,-6.2523,-6.2506,-6.2661,-6.2632,-6.2651,-6.2645,-6.2759,-6.2749,-6.3131,-6.3179,-6.2827,-6.2831,-6.2834,0,-6.219,-6.2277,-6.2295,-6.2341,-6.2358,-6.2432,-6.2473,-6.2429,-6.2475,-6.2513,-6.258,-6.2651,-6.2705,-6.2832,-6.2824,-6.2886,-6.2859,-6.2989,-6.2868,-6.2881,-6.2862,-6.2858,-6.2867,-6.3014,-6.3018,-6.3021,-6.3024,0,-6.2497,-6.248,-6.2542,-6.2601,-6.2652,-6.2695,-6.2732,-6.2774,-6.2731,-6.2786,-6.2864,-6.2906,-6.2989,-6.306,-6.3116,-6.3126,-6.307,-6.3062,-6.3091,-6.3108,-6.3116,-6.3114,-6.2719,-6.3053,-6.305,-6.3048,-6.3047,-6.3046,-6.2724,-6.2798,-6.2822,-6.2894,-6.2917,-6.2953,-6.3021,-6.3016,-6.308,-6.3145,-6.3115,-6.3205,-6.323,-6.3299,-6.3318,-6.3387,-6.3337,-6.3379,-6.339,-6.3402,-6.3417,-6.3104,-6.3397,-6.3396,-6.3395,-6.3395,-6.3394,0,-6.3028,-6.3039,-6.3105,-6.316,-6.3216,-6.3156,-6.3194,-6.3245,-6.3326,-6.3354,-6.3409,-6.3498,-6.3567,-6.3564,-6.3628,-6.3684,-6.3659,-6.3702,-6.3698,-6.3702,-6.3458,-6.3427,-6.3721,-6.3721,-6.3721,-6.3721,-6.3721,-6.3721,-6.3193,-6.3315,-6.3301,-6.3434,-6.3444,-6.3532,-6.3559,-6.3592,-6.3615,-6.3718,-6.3774,-6.3772,-6.3789,-6.3852,-6.3912,-6.391,-6.3937,-6.399,-6.3978,-6.3751,-6.3719,-6.3688,-6.3658,-6.3996,-6.3997,-6.4216,-6.4218,-6.4219]},{"header":{"parameterUnit":"m.s-1","parameterCategory":1,"la1":30.2991,"la2":30.254,"lo1":-89.0895,"lo2":-89.0444,"dy":0.0017,"dx":0.0017,"nx":28,"ny":28,"refTime":"2024-02-29T03:00:00:Z","depth":0,"parameterNumber":3,"parameterNumberName":"V-component_of_WINDS"},"data":[0,0,0,0,0,0,0,0,0,0,0,0,0,0,0,0,0,0,0,0,0,0,0,0,0,0,0,0,0,0,0,0,0,0,0,0,0,0,0,0,0,0,0,0,0,0,0,0,0,0,0,0,0,0,0,0,0,0,-5.9946,-5.9946,0,-5.9987,-5.9988,-5.9988,-5.9915,-5.9913,-5.991,-5.9908,-5.9948,-5.9951,-5.9954,0,0,0,0,0,0,0,0,0,0,0,0,0,-5.9799,-5.9802,-5.9946,-5.9946,-5.9947,-5.9987,-5.9988,-5.9988,-5.9916,-5.9913,-5.991,-5.9907,-5.9947,-5.9951,-5.9955,0,0,0,0,0,0,0,0,0,0,0,0,0,-5.9854,-5.9803,-5.9945,-5.9915,-5.9913,-5.9987,-5.9988,-5.9988,-5.9916,-5.9912,-5.9909,-5.9905,-5.9945,-5.995,-5.9955,-6.006,0,0,-5.9971,-5.9973,0,0,0,0,0,0,0,0,-5.9851,-5.9859,-5.9919,-5.9917,-5.9915,-5.9942,-5.995,-6.0012,-5.9917,-5.9915,-5.9908,-5.9904,-5.9949,-5.9953,-5.9969,-6.0062,-6.0064,-5.9971,-5.9974,-5.9976,-5.9978,0,0,0,0,0,0,0,-5.9847,-5.9857,-5.9962,-5.992,-5.9918,-5.9898,-5.9902,-5.9962,-5.9952,-5.9915,-5.991,-5.9916,-5.9947,-5.9964,-5.9969,-6.0064,-5.9971,-5.9975,-5.9978,-5.998,-6.0243,-6.0246,0,0,0,0,0,0,-5.9847,-5.9854,-5.9961,-5.9963,-5.9873,-5.9904,-5.9908,-5.9937,-5.9951,-5.995,-5.9919,-5.9912,-5.9958,-5.9964,-5.9971,-6.0093,-5.9976,-5.9981,-5.9984,-6.0239,-6.0243,-6.0248,0,0,0,0,0,0,-5.9844,-5.9857,-5.9959,-5.9907,-5.9919,-5.991,-5.9944,-5.994,-5.9957,-5.9954,-5.9952,-5.9939,-5.9955,-5.9964,-6.0038,-6.0093,-5.9983,-5.9988,-6.0234,-6.024,-6.0246,-6.0339,0,0,0,0,0,0,-5.984,-5.9857,-5.9898,-5.9909,-5.9922,-6.0027,-5.9947,-5.9943,-5.9967,-5.9958,-5.9972,-5.9971,-5.9953,-6.0031,-6.0043,-6.0098,-5.9992,-6.0229,-6.0237,-6.0244,-6.0331,-6.0347,-6.0362,0,0,0,0,0,-5.9836,-5.9922,-5.99,-5.9913,-5.9973,-6.0031,-6.0038,-6.0016,-5.9972,-6.0012,-6.0009,-5.9971,-6.0085,-6.0039,-6.0052,-6.011,-6.0225,-6.0235,-6.0243,-6.0324,-6.0344,-6.0361,0,0,0,0,0,0,-5.9917,-5.9923,-5.9899,-5.9992,-6.0011,-6.0018,-6.0068,-6.0038,-6.007,-6.0061,-6.0031,-6.0035,-6.0115,-6.012,-6.0068,-6.0211,-6.0148,-6.016,-6.0205,-6.0224,-6.0239,-6.0236,-5.9996,0,0,0,0,0,-5.9946,-5.9994,-5.9996,-6.0078,-6.0089,-6.0077,-6.0101,-6.0083,-6.0101,-6.0109,-6.0112,-6.013,-6.017,-6.0197,-6.0234,-6.0331,-6.0332,-6.0377,-6.0392,-6.0405,-6.0415,-6.0465,-6.0485,-6.0277,-6.0277,-6.0277,0,0,-6.0006,-6.0015,-6.0047,-6.0094,-6.0107,-6.0155,-6.0084,-6.0139,-6.0174,-6.0117,-6.0187,-6.019,-6.0209,-6.0295,-6.0333,-6.0301,-6.0473,-6.0416,-6.0426,-6.043,-6.0476,-6.0496,-6.0514,-6.0283,-6.0282,-6.0281,0,0,-6.014,-6.0153,-6.0221,-6.0236,-6.0256,-6.0248,-6.0264,-6.0275,-6.0275,-6.0346,-6.0303,-6.0344,-6.0414,-6.0428,-6.0445,-6.0583,-6.0548,-6.0596,-6.0675,-6.0725,-6.0741,-6.0755,-6.0803,-6.0821,-6.0606,-6.0607,-6.0607,0,-6.0212,-6.0285,-6.026,-6.0318,-6.0339,-6.029,-6.0358,-6.0373,-6.0404,-6.0419,-6.0384,-6.0469,-6.0479,-6.0566,-6.06,-6.0616,-6.0632,-6.0594,-6.0741,-6.0755,-6.0768,-6.0813,-6.0832,-6.0612,-6.0612,-6.0611,-6.0611,0,-6.0371,-6.0422,-6.0474,-6.0506,-6.0534,-6.0596,-6.058,-6.061,-6.0589,-6.0584,-6.0655,-6.0664,-6.0701,-6.0721,-6.0701,-6.0805,-6.0785,-6.0746,-6.0682,-6.0794,-6.0836,-6.0853,-6.062,-6.0618,-6.0617,-6.0615,0,0,-6.0558,-6.0575,-6.0595,-6.0608,-6.0626,-6.0665,-6.0724,-6.0761,-6.0787,-6.081,-6.0858,-6.0918,-6.0881,-6.09,-6.088,-6.0924,-6.1031,-6.0879,-6.0879,-6.0906,-6.1145,-6.1174,-6.1195,-6.1008,-6.1011,-6.1014,-6.1143,0,-6.069,-6.0794,-6.0773,-6.0874,-6.092,-6.0873,-6.0925,-6.0941,-6.0937,-6.0974,-6.0969,-6.1012,-6.0961,-6.0972,-6.1013,-6.1009,-6.1078,-6.1,-6.1051,-6.1053,-6.1047,-6.1217,-6.1248,-6.137,-6.116,-6.1163,-6.1165,0,-6.0859,-6.0888,-6.0994,-6.1004,-6.1022,-6.1069,-6.11,-6.1137,-6.1153,-6.1147,-6.1168,-6.114,-6.1198,-6.1134,-6.1211,-6.1158,-6.1178,-6.1179,-6.1183,-6.1187,-6.1115,-6.1224,-6.1408,-6.1426,-6.119,-6.1188,-6.1187,0,-6.0983,-6.1049,-6.112,-6.1133,-6.1147,-6.1181,-6.1188,-6.1201,-6.1224,-6.1251,-6.1265,-6.1298,-6.1316,-6.1342,-6.1323,-6.1278,-6.1403,-6.1338,-6.1399,-6.1399,-6.1427,-6.1425,-6.1616,-6.1441,-6.1441,-6.1441,-6.144,0,-6.1132,-6.1199,-6.1176,-6.122,-6.1292,-6.1267,-6.1339,-6.134,-6.1352,-6.1394,-6.1355,-6.1395,-6.1369,-6.1406,-6.1392,-6.1457,-6.1466,-6.1462,-6.1457,-6.1465,-6.1465,-6.1477,-6.1467,-6.1446,-6.1445,-6.1444,-6.1443,0,-6.1283,-6.1271,-6.1346,-6.1352,-6.1355,-6.1408,-6.1413,-6.1453,-6.1446,-6.15,-6.1511,-6.15,-6.1542,-6.1526,-6.1571,-6.1561,-6.1644,-6.1629,-6.1639,-6.1635,-6.1696,-6.169,-6.19,-6.1926,-6.1736,-6.1738,-6.1739,0,-6.1379,-6.1429,-6.1441,-6.1467,-6.1476,-6.1519,-6.1542,-6.1518,-6.1544,-6.1566,-6.1603,-6.1641,-6.1671,-6.174,-6.1735,-6.1769,-6.1753,-6.1824,-6.1758,-6.1764,-6.1753,-6.175,-6.1754,-6.1838,-6.184,-6.1842,-6.1843,0,-6.155,-6.1541,-6.1577,-6.161,-6.1639,-6.1664,-6.1685,-6.1708,-6.1685,-6.1716,-6.1758,-6.1782,-6.1827,-6.1865,-6.1895,-6.19,-6.1868,-6.1864,-6.188,-6.1888,-6.1891,-6.1889,-6.1674,-6.1859,-6.1858,-6.1856,-6.1856,-6.1855,-6.1675,-6.1717,-6.1731,-6.1771,-6.1785,-6.1806,-6.1843,-6.1841,-6.1876,-6.1912,-6.1896,-6.1945,-6.1958,-6.1995,-6.2005,-6.2042,-6.2014,-6.2037,-6.2042,-6.2048,-6.2056,-6.1886,-6.2047,-6.2047,-6.2046,-6.2046,-6.2045,0,-6.1843,-6.185,-6.1887,-6.1918,-6.1949,-6.1917,-6.1938,-6.1966,-6.201,-6.2026,-6.2056,-6.2104,-6.2141,-6.2139,-6.2172,-6.2202,-6.2188,-6.2212,-6.2209,-6.221,-6.2079,-6.2062,-6.2223,-6.2223,-6.2223,-6.2223,-6.2223,-6.2223,-6.1934,-6.2002,-6.1995,-6.2068,-6.2074,-6.2122,-6.2137,-6.2155,-6.2168,-6.2224,-6.2254,-6.2253,-6.2261,-6.2295,-6.2326,-6.2325,-6.2338,-6.2367,-6.236,-6.2238,-6.222,-6.2203,-6.2186,-6.2371,-6.2371,-6.2488,-6.2489,-6.249]}]]